[[{"header":{"parameterUnit":"m.s-1","parameterCategory":2,"la1":30.2991,"la2":30.254,"lo1":-89.0895,"lo2":-89.0444,"dx":0.0017,"dy":0.0017,"nx":28,"ny":28,"refTime":"2022-11-29T09:00:00:Z","depth":"0","parameterNumber":2,"parameterNumberName":"U-component_of_CURRENTS"},"data":[0,0,0,0,0,0,0,0,0,0,0,0,0,0,0,0,0,0,0,0,0,0,0,0,0,0,0,0,0,0,0,0,0,0,0,0,0,0,0,0,0,0,0,0,0,0,0,0,0,0,0,0,0,0,0,0,0,0,-0.1889,-0.189,0,-0.1958,-0.1958,-0.1958,-0.1851,-0.1848,-0.1845,-0.1843,-0.17,-0.1699,-0.1698,0,0,0,0,0,0,0,0,0,0,0,0,0,-0.1517,-0.1525,-0.1889,-0.1891,-0.1892,-0.1958,-0.1958,-0.1957,-0.1851,-0.1848,-0.1845,-0.1842,-0.17,-0.1699,-0.1697,0,0,0,0,0,0,0,0,0,0,0,0,0,-0.1632,-0.1527,-0.1888,-0.1855,-0.1853,-0.1958,-0.1958,-0.1957,-0.1852,-0.1848,-0.1844,-0.184,-0.1701,-0.1699,-0.1697,-0.1768,0,0,-0.1691,-0.1691,0,0,0,0,0,0,0,0,-0.1626,-0.1645,-0.1858,-0.1858,-0.1856,-0.1901,-0.1775,-0.1887,-0.1853,-0.1842,-0.1843,-0.1838,-0.1757,-0.1751,-0.1761,-0.1761,-0.1755,-0.1691,-0.169,-0.1689,-0.1689,0,0,0,0,0,0,0,-0.1618,-0.164,-0.1905,-0.1861,-0.186,-0.1787,-0.1798,-0.1795,-0.1809,-0.1842,-0.1837,-0.1863,-0.1753,-0.1763,-0.1756,-0.1753,-0.1691,-0.169,-0.1688,-0.1688,-0.177,-0.1773,0,0,0,0,0,0,-0.1645,-0.1635,-0.1903,-0.1908,-0.174,-0.1798,-0.1811,-0.1882,-0.1814,-0.1805,-0.1867,-0.1858,-0.1768,-0.1759,-0.1751,-0.1787,-0.1689,-0.1688,-0.1686,-0.1767,-0.1771,-0.1775,0,0,0,0,0,0,-0.1638,-0.1671,-0.1901,-0.1777,-0.1802,-0.1811,-0.189,-0.1886,-0.1896,-0.1837,-0.182,-0.1882,-0.1765,-0.1753,-0.1759,-0.1781,-0.1687,-0.1685,-0.1763,-0.1768,-0.1773,-0.1886,0,0,0,0,0,0,-0.1628,-0.1669,-0.1719,-0.1782,-0.1811,-0.1985,-0.1895,-0.189,-0.1923,-0.1912,-0.1845,-0.1827,-0.1761,-0.1763,-0.1757,-0.1777,-0.1684,-0.1759,-0.1765,-0.1771,-0.1878,-0.1894,-0.1908,0,0,0,0,0,-0.1615,-0.1714,-0.1722,-0.1754,-0.1886,-0.199,-0.1998,-0.1978,-0.1928,-0.1963,-0.1908,-0.1829,-0.1797,-0.1765,-0.1758,-0.1777,-0.1756,-0.1764,-0.1771,-0.1871,-0.1891,-0.1908,0,0,0,0,0,0,-0.1571,-0.1717,-0.1725,-0.1861,-0.1928,-0.1975,-0.2014,-0.2003,-0.1994,-0.1965,-0.1881,-0.1863,-0.1873,-0.1835,-0.1801,-0.1825,-0.1762,-0.1768,-0.1841,-0.1859,-0.1874,-0.1821,-0.1682,0,0,0,0,0,-0.1596,-0.1702,-0.1813,-0.1909,-0.1962,-0.199,-0.2024,-0.2021,-0.2031,-0.2022,-0.1982,-0.1936,-0.1907,-0.1888,-0.1868,-0.1895,-0.1811,-0.1904,-0.192,-0.1932,-0.189,-0.1808,-0.181,-0.1799,-0.1799,-0.1799,0,0,-0.159,-0.1693,-0.1741,-0.1905,-0.195,-0.2031,-0.1998,-0.2075,-0.2099,-0.201,-0.2025,-0.1995,-0.1931,-0.1945,-0.1946,-0.1907,-0.1904,-0.1942,-0.1952,-0.1901,-0.1816,-0.1816,-0.1816,-0.1804,-0.1803,-0.1803,0,0,-0.1649,-0.1747,-0.1855,-0.1931,-0.2044,-0.207,-0.2104,-0.2178,-0.2169,-0.2213,-0.2133,-0.2122,-0.211,-0.2054,-0.2022,-0.212,-0.1992,-0.2125,-0.2143,-0.2068,-0.2066,-0.2063,-0.1996,-0.1986,-0.2124,-0.2125,-0.2125,0,-0.1624,-0.1785,-0.1891,-0.201,-0.2043,-0.2094,-0.2163,-0.2201,-0.2249,-0.2217,-0.2228,-0.2167,-0.2149,-0.2091,-0.2131,-0.2145,-0.2075,-0.2074,-0.208,-0.2075,-0.207,-0.2001,-0.1988,-0.2131,-0.213,-0.213,-0.2129,0,-0.1763,-0.1871,-0.1943,-0.2094,-0.2153,-0.2227,-0.2296,-0.2325,-0.2321,-0.2316,-0.2291,-0.2282,-0.2213,-0.2244,-0.2217,-0.2174,-0.213,-0.2111,-0.2019,-0.2076,-0.2003,-0.1988,-0.214,-0.2138,-0.2136,-0.2134,0,0,-0.1691,-0.1982,-0.1977,-0.2042,-0.2185,-0.2234,-0.2288,-0.2314,-0.2278,-0.234,-0.2274,-0.2301,-0.2265,-0.2229,-0.2206,-0.2168,-0.2129,-0.213,-0.2123,-0.2035,-0.1947,-0.1917,-0.1897,-0.2094,-0.2092,-0.209,-0.1924,0,-0.1723,-0.1935,-0.205,-0.2147,-0.2243,-0.228,-0.2305,-0.232,-0.2315,-0.2283,-0.2264,-0.2224,-0.2269,-0.2231,-0.2207,-0.2136,-0.2085,-0.2174,-0.1926,-0.1919,-0.186,-0.1877,-0.1792,-0.1636,-0.1907,-0.1905,-0.1903,0,-0.1769,-0.1904,-0.2038,-0.2155,-0.2186,-0.2231,-0.2193,-0.2235,-0.2207,-0.2195,-0.2157,-0.2131,-0.2099,-0.2133,-0.2023,-0.207,-0.2008,-0.1967,-0.1959,-0.186,-0.1857,-0.1617,-0.1595,-0.16,-0.1877,-0.1879,-0.1881,0,-0.162,-0.1847,-0.1933,-0.1986,-0.2153,-0.2147,-0.2187,-0.2177,-0.2153,-0.2127,-0.2085,-0.2039,-0.2004,-0.1937,-0.1911,-0.1938,-0.1771,-0.179,-0.1694,-0.1691,-0.153,-0.1518,-0.1445,-0.1668,-0.1668,-0.1669,-0.1669,0,-0.1579,-0.1616,-0.1881,-0.1914,-0.1939,-0.2074,-0.2034,-0.2056,-0.2044,-0.1964,-0.2031,-0.1949,-0.195,-0.1872,-0.1845,-0.1728,-0.1714,-0.1666,-0.1633,-0.1579,-0.1573,-0.1497,-0.1525,-0.1663,-0.1664,-0.1665,-0.1666,0,-0.1365,-0.1564,-0.1659,-0.1843,-0.189,-0.1888,-0.1964,-0.1905,-0.1962,-0.1856,-0.1842,-0.1849,-0.1775,-0.1767,-0.1648,-0.1628,-0.1496,-0.1482,-0.1436,-0.1401,-0.133,-0.1369,-0.1217,-0.1187,-0.1327,-0.1325,-0.1324,0,-0.1298,-0.1342,-0.1548,-0.1572,-0.1648,-0.1706,-0.1697,-0.1817,-0.1754,-0.1761,-0.1662,-0.1636,-0.1541,-0.1443,-0.1416,-0.1335,-0.1379,-0.1209,-0.1255,-0.1288,-0.1306,-0.1361,-0.1352,-0.1099,-0.1095,-0.1093,-0.109,0,-0.1089,-0.1152,-0.121,-0.1297,-0.1337,-0.139,-0.1414,-0.1386,-0.146,-0.1411,-0.1313,-0.1269,-0.1245,-0.1159,-0.1152,-0.1107,-0.1194,-0.1149,-0.1166,-0.1096,-0.1157,-0.1126,-0.1273,-0.1066,-0.1068,-0.107,-0.1072,-0.1073,-0.0876,-0.0849,-0.0933,-0.0976,-0.102,-0.1034,-0.102,-0.1028,-0.0974,-0.0883,-0.0935,-0.0842,-0.0914,-0.091,-0.0902,-0.0912,-0.0985,-0.0889,-0.0923,-0.097,-0.0968,-0.108,-0.0862,-0.0863,-0.0864,-0.0865,-0.0866,0,-0.0661,-0.0617,-0.0607,-0.067,-0.0633,-0.0763,-0.0768,-0.0734,-0.0629,-0.0571,-0.0484,-0.0454,-0.0481,-0.0612,-0.0697,-0.0688,-0.0713,-0.071,-0.0757,-0.0752,-0.0802,-0.0822,-0.0605,-0.0605,-0.0605,-0.0605,-0.0605,-0.0605,-0.0533,-0.0447,-0.0445,-0.0317,-0.0332,-0.0289,-0.0299,-0.0264,-0.024,-0.0113,-0.006,-0.0068,-0.027,-0.0508,-0.0612,-0.061,-0.0645,-0.0627,-0.0688,-0.0735,-0.0755,-0.0775,-0.0801,-0.0583,-0.0583,-0.0597,-0.0597,-0.0597]},{"header":{"parameterUnit":"m.s-1","parameterCategory":2,"la1":30.2991,"la2":30.254,"lo1":-89.0895,"lo2":-89.0444,"dx":0.0017,"dy":0.0017,"nx":28,"ny":28,"refTime":"2022-11-29T09:00:00:Z","depth":"0","parameterNumber":3,"parameterNumberName":"V-component_of_CURRENTS"},"data":[0,0,0,0,0,0,0,0,0,0,0,0,0,0,0,0,0,0,0,0,0,0,0,0,0,0,0,0,0,0,0,0,0,0,0,0,0,0,0,0,0,0,0,0,0,0,0,0,0,0,0,0,0,0,0,0,0,0,0.0737,0.0738,0,0.0791,0.0792,0.0793,0.0835,0.0836,0.0836,0.0836,0.0868,0.0868,0.0869,0,0,0,0,0,0,0,0,0,0,0,0,0,0.0792,0.079,0.0737,0.0738,0.0739,0.0791,0.0792,0.0793,0.0835,0.0836,0.0836,0.0837,0.0868,0.0868,0.0869,0,0,0,0,0,0,0,0,0,0,0,0,0,0.0799,0.079,0.0737,0.0767,0.077,0.0791,0.0792,0.0793,0.0835,0.0836,0.0836,0.0837,0.0868,0.0868,0.0869,0.0858,0,0,0.087,0.0871,0,0,0,0,0,0,0,0,0.0798,0.0796,0.0762,0.0765,0.0768,0.0808,0.0823,0.0814,0.0835,0.0809,0.0836,0.0837,0.0846,0.0848,0.0856,0.0859,0.0861,0.0871,0.0871,0.0871,0.0871,0,0,0,0,0,0,0,0.0797,0.0795,0.0758,0.0762,0.0766,0.0819,0.082,0.0822,0.0822,0.0812,0.0815,0.0822,0.0847,0.0855,0.0857,0.0861,0.0871,0.0871,0.0871,0.0872,0.0897,0.0897,0,0,0,0,0,0,0.0784,0.0793,0.0756,0.076,0.0786,0.0817,0.0818,0.0794,0.0822,0.0828,0.0821,0.0824,0.0854,0.0856,0.0858,0.0851,0.0871,0.0872,0.0872,0.0896,0.0897,0.0897,0,0,0,0,0,0,0.0785,0.0779,0.0754,0.0781,0.0781,0.0814,0.0788,0.0795,0.0801,0.083,0.0835,0.0821,0.0855,0.0857,0.0862,0.0852,0.0872,0.0872,0.0896,0.0896,0.0897,0.0833,0,0,0,0,0,0,0.0785,0.0778,0.0749,0.0778,0.0779,0.0749,0.0788,0.0795,0.0805,0.0808,0.0831,0.0835,0.0855,0.0861,0.0863,0.0853,0.0873,0.0895,0.0896,0.0897,0.0835,0.0832,0.0829,0,0,0,0,0,0.0787,0.073,0.0746,0.0742,0.0739,0.0748,0.0752,0.0781,0.0804,0.0792,0.0822,0.0835,0.0867,0.0861,0.0863,0.0854,0.0895,0.0896,0.0897,0.0836,0.0832,0.0829,0,0,0,0,0,0,0.0714,0.0731,0.0749,0.0693,0.0718,0.0755,0.0737,0.0773,0.0788,0.0787,0.0828,0.0833,0.0837,0.0856,0.085,0.0867,0.0887,0.0888,0.0841,0.0837,0.0834,0.0817,0.0873,0,0,0,0,0,0.0691,0.0664,0.0696,0.0651,0.0657,0.0701,0.0707,0.0732,0.0755,0.0763,0.0792,0.0821,0.0842,0.0847,0.0865,0.0862,0.0889,0.0864,0.0861,0.0858,0.0848,0.0912,0.0913,0.0899,0.0899,0.0899,0,0,0.0651,0.0655,0.0639,0.0638,0.0653,0.0651,0.0704,0.07,0.0709,0.0761,0.0769,0.0804,0.084,0.0846,0.085,0.0858,0.0869,0.0859,0.0855,0.0847,0.0913,0.0914,0.0915,0.09,0.09,0.09,0,0,0.0566,0.0559,0.052,0.0536,0.0558,0.0594,0.0592,0.0634,0.066,0.0679,0.0725,0.0757,0.0783,0.0816,0.0834,0.0824,0.0851,0.083,0.0794,0.0856,0.0857,0.0859,0.0858,0.0861,0.0827,0.0827,0.0827,0,0.053,0.0474,0.051,0.0484,0.0493,0.0566,0.0543,0.0576,0.0622,0.0647,0.0669,0.0747,0.0772,0.08,0.0797,0.0814,0.0835,0.08,0.085,0.0853,0.0855,0.0855,0.0858,0.0824,0.0824,0.0825,0.0825,0,0.0419,0.0393,0.0366,0.037,0.0384,0.037,0.0433,0.0457,0.0512,0.0566,0.0615,0.0671,0.0723,0.0738,0.0758,0.079,0.0791,0.0838,0.0854,0.0853,0.0852,0.0857,0.082,0.0821,0.0822,0.0823,0,0,0.0316,0.0299,0.0291,0.03,0.0327,0.0339,0.0347,0.0397,0.043,0.0491,0.054,0.0586,0.0644,0.067,0.0717,0.0762,0.0785,0.0796,0.08,0.0782,0.0876,0.0838,0.0839,0.0847,0.0848,0.0849,0.0854,0,0.0235,0.0175,0.0185,0.0163,0.0159,0.0225,0.0245,0.0303,0.0372,0.044,0.0524,0.0586,0.0613,0.0649,0.0695,0.0777,0.08,0.0776,0.0891,0.0893,0.0851,0.0845,0.0891,0.0898,0.0859,0.086,0.086,0,0.0129,0.012,0.0068,0.0111,0.0112,0.0115,0.0185,0.0218,0.0321,0.0377,0.0449,0.0527,0.0593,0.0639,0.0743,0.0727,0.0781,0.084,0.0843,0.0834,0.0865,0.0903,0.0908,0.1012,0.0868,0.0867,0.0867,0,0.0072,0.0048,0.0015,0.0019,0.0065,0.0069,0.0113,0.0199,0.0273,0.0352,0.0411,0.0493,0.0556,0.0647,0.072,0.0752,0.0828,0.0902,0.0906,0.0901,0.0976,0.0976,0.1089,0.0971,0.0971,0.0971,0.0971,0,-0.0005,-0.0013,-0.0008,-0.0016,0.0001,0.004,0.01,0.0139,0.0252,0.0357,0.039,0.0469,0.0569,0.0624,0.0703,0.0781,0.081,0.0884,0.0909,0.0949,0.0947,0.107,0.1097,0.0971,0.0971,0.0971,0.0971,0,-0.004,-0.0058,-0.0062,-0.0041,-0.0023,0.0002,0.0126,0.02,0.0255,0.0388,0.0418,0.0471,0.0522,0.0573,0.0693,0.0752,0.0889,0.0851,0.0841,0.0866,0.1008,0.1029,0.1094,0.1155,0.0903,0.0902,0.0901,0,-0.0057,-0.0073,-0.0069,-0.0044,-0.0029,0.0037,0.0116,0.0207,0.0305,0.041,0.048,0.0504,0.0565,0.0631,0.0704,0.0778,0.0853,0.0857,0.0945,0.1003,0.1048,0.1047,0.1095,0.1007,0.1007,0.1007,0.1007,0,-0.0037,-0.0052,-0.0056,-0.0028,0.0029,0.0122,0.0228,0.0298,0.0428,0.052,0.0618,0.0652,0.0667,0.0739,0.0735,0.0805,0.0934,0.0865,0.0973,0.116,0.1124,0.12,0.0965,0.1009,0.1009,0.1009,0.1009,0.1009,-0.0001,-0.0,-0.0013,0.0014,0.0087,0.0189,0.0254,0.0371,0.0508,0.0661,0.0722,0.0799,0.0849,0.0866,0.0892,0.099,0.0978,0.1099,0.112,0.1113,0.1177,0.0889,0.0935,0.0935,0.0934,0.0934,0.0933,0,0.009,0.0068,0.0063,0.0098,0.018,0.0201,0.0333,0.0409,0.0529,0.0707,0.0834,0.1008,0.1069,0.1093,0.1191,0.1267,0.1305,0.1303,0.1372,0.1416,0.1228,0.1241,0.1299,0.1299,0.1299,0.1299,0.1299,0.1299,0.0146,0.0142,0.0101,0.0185,0.0213,0.0337,0.0387,0.0443,0.0549,0.0792,0.0945,0.1071,0.1189,0.1356,0.1498,0.1518,0.1628,0.1564,0.1614,0.1549,0.1534,0.152,0.1544,0.1664,0.1664,0.1841,0.1843,0.1844]}],[{"header":{"parameterUnit":"m.s-1","parameterCategory":2,"la1":30.2991,"la2":30.254,"lo1":-89.0895,"lo2":-89.0444,"dx":0.0017,"dy":0.0017,"nx":28,"ny":28,"refTime":"2022-11-29T09:00:00:Z","depth":"2","parameterNumber":2,"parameterNumberName":"U-component_of_CURRENTS"},"data":[0,0,0,0,0,0,0,0,0,0,0,0,0,0,0,0,0,0,0,0,0,0,0,0,0,0,0,0,0,0,0,0,0,0,0,0,0,0,0,0,0,0,0,0,0,0,0,0,0,0,0,0,0,0,0,0,0,0,-0.2108,-0.2109,0,-0.2101,-0.21,-0.21,-0.1985,-0.1983,-0.198,-0.1978,-0.1853,-0.1852,-0.1851,0,0,0,0,0,0,0,0,0,0,0,0,0,-0.2145,-0.2144,-0.2108,-0.2109,-0.2109,-0.2101,-0.21,-0.21,-0.1986,-0.1983,-0.198,-0.1977,-0.1854,-0.1852,-0.1851,0,0,0,0,0,0,0,0,0,0,0,0,0,-0.2127,-0.2143,-0.2108,-0.2055,-0.2051,-0.2101,-0.21,-0.2099,-0.1986,-0.1983,-0.1979,-0.1976,-0.1854,-0.1853,-0.1851,-0.1913,0,0,-0.1846,-0.1845,0,0,0,0,0,0,0,0,-0.2128,-0.2125,-0.2063,-0.2059,-0.2054,-0.2045,-0.2068,-0.2033,-0.1987,-0.2005,-0.1978,-0.1974,-0.1913,-0.1906,-0.1907,-0.1907,-0.1902,-0.1846,-0.1845,-0.1844,-0.1844,0,0,0,0,0,0,0,-0.2129,-0.2125,-0.2099,-0.2064,-0.2059,-0.2074,-0.2066,-0.2061,-0.1973,-0.2003,-0.1996,-0.2006,-0.1909,-0.1909,-0.1903,-0.19,-0.1846,-0.1844,-0.1843,-0.1843,-0.1897,-0.1899,0,0,0,0,0,0,-0.2139,-0.2126,-0.21,-0.21,-0.209,-0.2076,-0.2067,-0.2047,-0.1975,-0.1963,-0.2009,-0.2,-0.1913,-0.1905,-0.1898,-0.1923,-0.1844,-0.1843,-0.1842,-0.1894,-0.1897,-0.19,0,0,0,0,0,0,-0.2139,-0.2136,-0.21,-0.2119,-0.2116,-0.2079,-0.2059,-0.2049,-0.2048,-0.1982,-0.1965,-0.2017,-0.191,-0.19,-0.1895,-0.1918,-0.1842,-0.184,-0.1891,-0.1895,-0.1899,-0.2001,0,0,0,0,0,0,-0.214,-0.2135,-0.2117,-0.2119,-0.2116,-0.2147,-0.2062,-0.2052,-0.2062,-0.2051,-0.1985,-0.1969,-0.1906,-0.1898,-0.1893,-0.1915,-0.1839,-0.1888,-0.1893,-0.1897,-0.1995,-0.2008,-0.2019,0,0,0,0,0,-0.2141,-0.2139,-0.2115,-0.2113,-0.2093,-0.2151,-0.2152,-0.211,-0.2066,-0.209,-0.2031,-0.1971,-0.1922,-0.1899,-0.1893,-0.1914,-0.1886,-0.1892,-0.1897,-0.1989,-0.2005,-0.2019,0,0,0,0,0,0,-0.2166,-0.2128,-0.2102,-0.2091,-0.2128,-0.2133,-0.2138,-0.2133,-0.2111,-0.2077,-0.2008,-0.1992,-0.1995,-0.1958,-0.1934,-0.1947,-0.1894,-0.1898,-0.1966,-0.1981,-0.1993,-0.195,-0.1838,0,0,0,0,0,-0.2163,-0.2136,-0.2144,-0.2148,-0.2152,-0.2153,-0.2166,-0.2154,-0.2144,-0.2128,-0.2093,-0.2046,-0.202,-0.2001,-0.1978,-0.1996,-0.1918,-0.2007,-0.2019,-0.2029,-0.1994,-0.191,-0.1909,-0.1918,-0.1918,-0.1918,0,0,-0.2194,-0.2157,-0.2154,-0.215,-0.2152,-0.2172,-0.2149,-0.2181,-0.2201,-0.2122,-0.2124,-0.2096,-0.2039,-0.2042,-0.2041,-0.2007,-0.1997,-0.2036,-0.2045,-0.2002,-0.1915,-0.1913,-0.1912,-0.1921,-0.1921,-0.192,0,0,-0.2228,-0.2191,-0.2171,-0.2188,-0.2194,-0.2204,-0.2224,-0.2245,-0.2246,-0.228,-0.2208,-0.2198,-0.2182,-0.2134,-0.2106,-0.2184,-0.207,-0.2185,-0.2199,-0.2121,-0.2118,-0.2114,-0.2047,-0.2036,-0.2182,-0.2183,-0.2183,0,-0.2254,-0.2206,-0.2197,-0.2182,-0.2184,-0.222,-0.2228,-0.2265,-0.2292,-0.2273,-0.2288,-0.2227,-0.2219,-0.2163,-0.2197,-0.2207,-0.2132,-0.2146,-0.2131,-0.2126,-0.212,-0.2051,-0.2038,-0.2188,-0.2188,-0.2187,-0.2186,0,-0.2263,-0.2227,-0.2231,-0.2193,-0.2222,-0.2245,-0.2286,-0.2318,-0.2334,-0.2335,-0.2322,-0.232,-0.2256,-0.2289,-0.227,-0.2226,-0.218,-0.2161,-0.2083,-0.2124,-0.2051,-0.2035,-0.2196,-0.2194,-0.2193,-0.2191,0,0,-0.2282,-0.2236,-0.2217,-0.2196,-0.2211,-0.2239,-0.2279,-0.2295,-0.2272,-0.2334,-0.2284,-0.232,-0.2291,-0.2261,-0.2247,-0.2211,-0.2169,-0.2174,-0.2167,-0.2087,-0.1977,-0.1939,-0.1917,-0.2126,-0.2123,-0.2121,-0.1954,0,-0.2271,-0.2211,-0.2201,-0.22,-0.2189,-0.2216,-0.2245,-0.2269,-0.2284,-0.2264,-0.2267,-0.2234,-0.229,-0.2257,-0.2236,-0.2177,-0.2123,-0.2214,-0.1964,-0.1956,-0.19,-0.1897,-0.1794,-0.1634,-0.1937,-0.1935,-0.1933,0,-0.2241,-0.2201,-0.2156,-0.215,-0.2145,-0.2165,-0.2151,-0.2185,-0.217,-0.2178,-0.2141,-0.2125,-0.2104,-0.2146,-0.2048,-0.2091,-0.2032,-0.1998,-0.199,-0.189,-0.1887,-0.1637,-0.1591,-0.1904,-0.1907,-0.1909,-0.1911,0,-0.2197,-0.2166,-0.211,-0.2107,-0.2118,-0.211,-0.2132,-0.2129,-0.2128,-0.2097,-0.2068,-0.2024,-0.2001,-0.1936,-0.1925,-0.1955,-0.179,-0.1816,-0.1713,-0.171,-0.1537,-0.1524,-0.1692,-0.1692,-0.1692,-0.1693,-0.1693,0,-0.2159,-0.2123,-0.2083,-0.2056,-0.2014,-0.2061,-0.202,-0.2033,-0.2027,-0.1984,-0.2007,-0.1959,-0.1943,-0.1869,-0.1849,-0.1737,-0.1723,-0.1684,-0.1649,-0.158,-0.1572,-0.1736,-0.1743,-0.1687,-0.1688,-0.1689,-0.169,0,-0.2105,-0.208,-0.2013,-0.1986,-0.1981,-0.1947,-0.1961,-0.1933,-0.1962,-0.1902,-0.1891,-0.1879,-0.1799,-0.1764,-0.1649,-0.163,-0.1536,-0.1484,-0.142,-0.1381,-0.1523,-0.1538,-0.1336,-0.1333,-0.133,-0.1328,-0.1326,0,-0.205,-0.2009,-0.1912,-0.1859,-0.184,-0.1819,-0.18,-0.187,-0.1866,-0.1849,-0.1815,-0.1732,-0.1658,-0.1507,-0.1436,-0.1329,-0.1414,-0.1179,-0.1233,-0.1492,-0.1478,-0.1498,-0.1516,-0.1055,-0.1051,-0.1048,-0.1046,0,-0.1959,-0.1906,-0.1817,-0.1688,-0.1648,-0.1633,-0.1645,-0.1656,-0.1725,-0.172,-0.1667,-0.1595,-0.1443,-0.129,-0.1176,-0.1119,-0.1204,-0.1111,-0.1331,-0.1188,-0.122,-0.1211,-0.1239,-0.1017,-0.102,-0.1022,-0.1024,-0.1025,-0.1811,-0.1755,-0.1616,-0.1501,-0.143,-0.1432,-0.1424,-0.1468,-0.1481,-0.1458,-0.1504,-0.1362,-0.1313,-0.107,-0.0984,-0.0889,-0.0979,-0.0947,-0.0958,-0.0973,-0.0997,-0.1025,-0.079,-0.0791,-0.0792,-0.0794,-0.0795,0,-0.1597,-0.1609,-0.1473,-0.1351,-0.1221,-0.1278,-0.1286,-0.1283,-0.1276,-0.1261,-0.123,-0.1089,-0.0968,-0.088,-0.0677,-0.0648,-0.0663,-0.0632,-0.066,-0.0687,-0.0712,-0.0726,-0.0444,-0.0444,-0.0443,-0.0442,0,0,-0.1495,-0.1359,-0.1335,-0.114,-0.11,-0.102,-0.1023,-0.1007,-0.0975,-0.0915,-0.0842,-0.093,-0.0869,-0.0697,-0.065,-0.0494,-0.0594,-0.0466,-0.0745,-0.0806,-0.083,-0.0884,-0.0934,0,0,0,0,0]},{"header":{"parameterUnit":"m.s-1","parameterCategory":2,"la1":30.2991,"la2":30.254,"lo1":-89.0895,"lo2":-89.0444,"dx":0.0017,"dy":0.0017,"nx":28,"ny":28,"refTime":"2022-11-29T09:00:00:Z","depth":"2","parameterNumber":3,"parameterNumberName":"V-component_of_CURRENTS"},"data":[0,0,0,0,0,0,0,0,0,0,0,0,0,0,0,0,0,0,0,0,0,0,0,0,0,0,0,0,0,0,0,0,0,0,0,0,0,0,0,0,0,0,0,0,0,0,0,0,0,0,0,0,0,0,0,0,0,0,0.0094,0.0094,0,0.007,0.0069,0.0067,0.0035,0.0035,0.0036,0.0037,0.0162,0.0164,0.0167,0,0,0,0,0,0,0,0,0,0,0,0,0,-0.0215,-0.0208,0.0093,0.0094,0.0095,0.007,0.0069,0.0067,0.0035,0.0035,0.0036,0.0037,0.0161,0.0164,0.0167,0,0,0,0,0,0,0,0,0,0,0,0,0,-0.0154,-0.0206,0.0093,0.0085,0.0085,0.007,0.0069,0.0067,0.0035,0.0035,0.0036,0.0037,0.016,0.0164,0.0168,0.0177,0,0,0.0181,0.0183,0,0,0,0,0,0,0,0,-0.0157,-0.0144,0.0085,0.0085,0.0085,0.0067,0.0006,0.0115,0.0034,0.0041,0.0037,0.0037,0.0151,0.0156,0.013,0.0183,0.0189,0.0181,0.0184,0.0186,0.0187,0,0,0,0,0,0,0,-0.0161,-0.0145,0.0072,0.0086,0.0087,-0.0029,-0.0018,0.0023,0.0085,0.004,0.0041,0.0057,0.015,0.0126,0.0134,0.0191,0.0181,0.0185,0.0187,0.0189,0.0371,0.0373,0,0,0,0,0,0,-0.0116,-0.0146,0.0073,0.0073,-0.0023,-0.0021,-0.001,0.0062,0.0081,0.0087,0.0057,0.0056,0.0118,0.0129,0.0139,0.0239,0.0186,0.019,0.0192,0.0369,0.0371,0.0374,0,0,0,0,0,0,-0.0122,-0.0094,0.0074,-0.0033,-0.0018,-0.0013,0.0065,0.0061,0.0065,0.0094,0.0101,0.0069,0.0119,0.0133,0.0207,0.0241,0.0191,0.0195,0.0366,0.037,0.0373,0.0386,0,0,0,0,0,0,-0.013,-0.0095,-0.0031,-0.0027,-0.0009,0.0103,0.0065,0.0061,0.0079,0.0078,0.0108,0.0117,0.0121,0.02,0.0211,0.0246,0.0199,0.0363,0.0368,0.0372,0.0382,0.0389,0.0395,0,0,0,0,0,-0.014,-0.0084,-0.0026,-0.0,0.0083,0.0106,0.0103,0.0096,0.0079,0.0096,0.0115,0.0118,0.0235,0.0206,0.0217,0.0254,0.0361,0.0366,0.0371,0.0379,0.0388,0.0395,0,0,0,0,0,0,-0.023,-0.008,-0.0018,0.0076,0.0123,0.0106,0.0089,0.0113,0.013,0.0115,0.0145,0.0158,0.0239,0.0252,0.0218,0.0323,0.0301,0.0308,0.0303,0.0311,0.0317,0.025,0.0202,0,0,0,0,0,-0.0195,-0.0078,0.0007,0.0085,0.009,0.0103,0.0109,0.0121,0.0137,0.0141,0.0192,0.0225,0.0262,0.0291,0.0335,0.0388,0.0386,0.0424,0.043,0.0435,0.0392,0.0455,0.0462,0.0391,0.0391,0.0391,0,0,-0.021,-0.0111,-0.0048,0.008,0.0076,0.0076,0.0102,0.0108,0.0133,0.0157,0.0206,0.0261,0.0287,0.0346,0.0383,0.0363,0.0456,0.0442,0.0445,0.0398,0.0461,0.0467,0.0473,0.0394,0.0394,0.0393,0,0,-0.0233,-0.0106,-0.0045,-0.0007,0.0051,0.006,0.0081,0.0118,0.0155,0.0226,0.0246,0.0317,0.0392,0.0412,0.0423,0.0494,0.0497,0.0533,0.0498,0.0562,0.0567,0.0571,0.0574,0.0579,0.0525,0.0525,0.0525,0,-0.0269,-0.0155,-0.004,-0.0019,-0.0006,0.0056,0.0049,0.0087,0.0172,0.0213,0.025,0.036,0.0405,0.044,0.0459,0.0503,0.0521,0.0462,0.0566,0.057,0.0574,0.0577,0.0581,0.0526,0.0526,0.0526,0.0526,0,-0.0258,-0.0193,-0.0197,-0.0106,-0.0071,-0.0077,0.0,0.0065,0.0129,0.0185,0.0297,0.0371,0.0426,0.0476,0.0475,0.0536,0.0533,0.0575,0.0535,0.0582,0.0582,0.0586,0.0528,0.0527,0.0527,0.0527,0,0,-0.0318,-0.0199,-0.0202,-0.0174,-0.012,-0.0091,-0.0054,0.0019,0.0053,0.018,0.0239,0.0329,0.0391,0.0407,0.0466,0.0513,0.0569,0.0544,0.0547,0.0521,0.0671,0.0641,0.0643,0.0642,0.0643,0.0644,0.0657,0,-0.0371,-0.0312,-0.0239,-0.0239,-0.0243,-0.0167,-0.0123,-0.0036,0.0049,0.0137,0.0235,0.0314,0.036,0.0406,0.0461,0.054,0.0582,0.0557,0.0648,0.0648,0.0598,0.0648,0.0618,0.0626,0.0661,0.0662,0.0663,0,-0.0423,-0.0359,-0.0332,-0.0268,-0.0265,-0.0242,-0.0158,-0.0105,0.0005,0.0085,0.0164,0.0246,0.0315,0.0379,0.0494,0.048,0.0559,0.0624,0.0628,0.0584,0.0627,0.0589,0.0632,0.067,0.0669,0.0669,0.0668,0,-0.0509,-0.0456,-0.0406,-0.0391,-0.0298,-0.0263,-0.0223,-0.0124,-0.0063,0.0045,0.0094,0.0196,0.0264,0.0369,0.0468,0.05,0.0588,0.0662,0.0702,0.0699,0.0675,0.0668,0.0754,0.0754,0.0754,0.0754,0.0754,0,-0.0615,-0.0601,-0.0432,-0.0414,-0.0378,-0.0299,-0.0266,-0.0194,-0.0097,-0.0046,0.0059,0.0129,0.0275,0.0343,0.0441,0.0544,0.0568,0.0673,0.0707,0.068,0.0674,0.0713,0.0708,0.0754,0.0754,0.0754,0.0754,0,-0.0759,-0.0648,-0.0596,-0.0454,-0.042,-0.0392,-0.0312,-0.0286,-0.0178,-0.0112,-0.0077,0.0078,0.0181,0.0277,0.0437,0.0509,0.0613,0.0651,0.0565,0.0589,0.0689,0.0685,0.0715,0.0714,0.0714,0.0713,0.0712,0,-0.0833,-0.0807,-0.062,-0.058,-0.0527,-0.0475,-0.0452,-0.0342,-0.0326,-0.0137,-0.0125,0.0022,0.0132,0.0297,0.0431,0.0555,0.0593,0.0594,0.0666,0.0658,0.0688,0.0685,0.0682,0.064,0.0639,0.0638,0.0638,0,-0.1004,-0.0893,-0.0794,-0.0672,-0.0625,-0.0598,-0.0563,-0.0563,-0.0433,-0.036,-0.0212,-0.0077,0.0149,0.0303,0.0441,0.0521,0.0565,0.0583,0.0619,0.0649,0.0588,0.0617,0.0617,0.063,0.0631,0.0632,0.0632,0.0632,-0.1089,-0.1072,-0.0888,-0.0798,-0.0708,-0.0706,-0.0734,-0.0693,-0.0655,-0.0546,-0.0356,-0.0158,0.0081,0.0285,0.0419,0.0533,0.0581,0.0612,0.0615,0.0619,0.0603,0.0544,0.0571,0.0571,0.0572,0.0572,0.0572,0,-0.1189,-0.117,-0.1067,-0.0941,-0.0864,-0.0791,-0.0783,-0.0799,-0.0798,-0.0652,-0.0499,-0.025,-0.0031,0.0211,0.0421,0.0562,0.0574,0.0553,0.0562,0.0568,0.0574,0.0557,0.0512,0.0512,0.0512,0.0512,0,0,-0.1242,-0.1191,-0.1134,-0.1081,-0.1018,-0.0999,-0.1009,-0.096,-0.0852,-0.0737,-0.0594,-0.0397,-0.002,0.008,0.028,0.0417,0.0443,0.0406,0.044,0.0435,0.0438,0.0595,0.0573,0,0,0,0,0]}],[{"header":{"parameterUnit":"m.s-1","parameterCategory":2,"la1":30.2991,"la2":30.254,"lo1":-89.0895,"lo2":-89.0444,"dx":0.0017,"dy":0.0017,"nx":28,"ny":28,"refTime":"2022-11-29T09:00:00:Z","depth":"4","parameterNumber":2,"parameterNumberName":"U-component_of_CURRENTS"},"data":[0,0,0,0,0,0,0,0,0,0,0,0,0,0,0,0,0,0,0,0,0,0,0,0,0,0,0,0,0,0,0,0,0,0,0,0,0,0,0,0,0,0,0,0,0,0,0,0,0,0,0,0,0,0,0,0,0,0,-0.0892,-0.0892,0,-0.0882,-0.0882,-0.0882,-0.09,-0.0901,-0.0901,-0.0901,-0.0958,-0.0959,-0.096,0,0,0,0,0,0,0,0,0,0,0,0,0,-0.0923,-0.0923,-0.0892,-0.0892,-0.0891,-0.0882,-0.0882,-0.0882,-0.09,-0.0901,-0.0901,-0.0902,-0.0957,-0.0959,-0.096,0,0,0,0,0,0,0,0,0,0,0,0,0,-0.0913,-0.0922,-0.0892,-0.0898,-0.0898,-0.0882,-0.0882,-0.0882,-0.09,-0.0901,-0.0901,-0.0902,-0.0957,-0.0958,-0.096,-0.0957,0,0,-0.0965,-0.0966,0,0,0,0,0,0,0,0,-0.0913,-0.0912,-0.0897,-0.0897,-0.0898,-0.0892,-0.0914,-0.091,-0.09,-0.0901,-0.0902,-0.0902,-0.094,-0.0943,-0.0941,-0.096,-0.0962,-0.0965,-0.0966,-0.0967,-0.0967,0,0,0,0,0,0,0,-0.0914,-0.0912,-0.089,-0.0897,-0.0897,-0.09,-0.0899,-0.0913,-0.092,-0.0901,-0.0902,-0.0898,-0.0941,-0.094,-0.0943,-0.0963,-0.0965,-0.0967,-0.0968,-0.0968,-0.1067,-0.1069,0,0,0,0,0,0,-0.0911,-0.0913,-0.089,-0.0889,-0.0905,-0.0899,-0.0898,-0.0894,-0.0918,-0.0921,-0.0897,-0.0899,-0.0937,-0.0941,-0.0945,-0.1027,-0.0967,-0.0968,-0.0969,-0.1066,-0.1068,-0.1069,0,0,0,0,0,0,-0.0912,-0.0909,-0.0891,-0.09,-0.0897,-0.0897,-0.0893,-0.0894,-0.0906,-0.0914,-0.0919,-0.091,-0.0937,-0.0943,-0.0981,-0.1026,-0.0969,-0.0971,-0.1064,-0.1066,-0.1069,-0.1138,0,0,0,0,0,0,-0.0913,-0.0909,-0.0913,-0.0899,-0.0897,-0.0896,-0.0892,-0.0893,-0.0901,-0.0903,-0.0926,-0.0931,-0.0938,-0.0979,-0.0983,-0.1028,-0.0972,-0.1062,-0.1065,-0.1068,-0.1133,-0.1142,-0.115,0,0,0,0,0,-0.0914,-0.0916,-0.0914,-0.0911,-0.0899,-0.0896,-0.0896,-0.0899,-0.0901,-0.0912,-0.0934,-0.0931,-0.1002,-0.0981,-0.0986,-0.1032,-0.106,-0.1064,-0.1067,-0.113,-0.114,-0.115,0,0,0,0,0,0,-0.0936,-0.0917,-0.0915,-0.0912,-0.0911,-0.0899,-0.0904,-0.0905,-0.0928,-0.094,-0.0946,-0.0953,-0.1001,-0.1005,-0.0982,-0.107,-0.1033,-0.1038,-0.1079,-0.1089,-0.1097,-0.1082,-0.0973,0,0,0,0,0,-0.094,-0.0937,-0.0922,-0.0925,-0.092,-0.0914,-0.0915,-0.0922,-0.0933,-0.0943,-0.0961,-0.0988,-0.1016,-0.1043,-0.1059,-0.1107,-0.1077,-0.1142,-0.115,-0.1157,-0.1148,-0.1119,-0.1123,-0.1082,-0.1082,-0.1081,0,0,-0.0952,-0.0939,-0.094,-0.0929,-0.0925,-0.0934,-0.0918,-0.0928,-0.095,-0.0947,-0.0991,-0.101,-0.1031,-0.1086,-0.1109,-0.11,-0.1161,-0.1162,-0.1168,-0.1155,-0.1123,-0.1127,-0.113,-0.1084,-0.1084,-0.1083,0,0,-0.0968,-0.096,-0.096,-0.0964,-0.0961,-0.0958,-0.0964,-0.0968,-0.0983,-0.1023,-0.1031,-0.1069,-0.1116,-0.114,-0.1158,-0.1219,-0.1194,-0.1243,-0.1288,-0.1261,-0.1264,-0.1265,-0.1259,-0.1259,-0.1261,-0.1261,-0.1261,0,-0.0983,-0.098,-0.0964,-0.0971,-0.0977,-0.0972,-0.0987,-0.1001,-0.1026,-0.1038,-0.105,-0.1111,-0.1137,-0.1189,-0.1231,-0.1237,-0.1222,-0.125,-0.127,-0.127,-0.1271,-0.1263,-0.1263,-0.1265,-0.1264,-0.1264,-0.1263,0,-0.0995,-0.1005,-0.1007,-0.1012,-0.1023,-0.1035,-0.1047,-0.1072,-0.109,-0.11,-0.1148,-0.1181,-0.1215,-0.1248,-0.127,-0.1307,-0.1297,-0.127,-0.1239,-0.1279,-0.127,-0.1268,-0.127,-0.1269,-0.1267,-0.1267,0,0,-0.0994,-0.101,-0.1016,-0.1024,-0.1047,-0.1051,-0.1095,-0.1113,-0.1126,-0.1173,-0.1192,-0.127,-0.1276,-0.1297,-0.1326,-0.1333,-0.1352,-0.1325,-0.1322,-0.131,-0.1312,-0.1232,-0.1222,-0.133,-0.1329,-0.1329,-0.1313,0,-0.1006,-0.1023,-0.1037,-0.107,-0.1073,-0.1098,-0.1131,-0.116,-0.1177,-0.1197,-0.1234,-0.1265,-0.1298,-0.1329,-0.1341,-0.1335,-0.1347,-0.136,-0.1282,-0.128,-0.1195,-0.1216,-0.1327,-0.1311,-0.1311,-0.1311,-0.131,0,-0.1013,-0.1017,-0.1046,-0.1078,-0.1083,-0.1114,-0.1145,-0.1178,-0.1208,-0.1227,-0.1261,-0.1273,-0.132,-0.1325,-0.133,-0.134,-0.134,-0.1332,-0.133,-0.1221,-0.1194,-0.1257,-0.1306,-0.1306,-0.1307,-0.1307,-0.1307,0,-0.0994,-0.1028,-0.1047,-0.1061,-0.1096,-0.1124,-0.1152,-0.1185,-0.1213,-0.1242,-0.1265,-0.1283,-0.1321,-0.1298,-0.1316,-0.1321,-0.1294,-0.1283,-0.1211,-0.1206,-0.1251,-0.1249,-0.1271,-0.1271,-0.1271,-0.1271,-0.1271,0,-0.0982,-0.1001,-0.104,-0.1047,-0.1067,-0.1113,-0.114,-0.1169,-0.1221,-0.1241,-0.1282,-0.1306,-0.1318,-0.1314,-0.13,-0.1248,-0.1276,-0.1211,-0.1187,-0.1287,-0.1289,-0.1252,-0.125,-0.127,-0.127,-0.127,-0.127,0,-0.0947,-0.098,-0.0999,-0.1042,-0.1055,-0.1072,-0.114,-0.1152,-0.1221,-0.1252,-0.1274,-0.1335,-0.1317,-0.1307,-0.1276,-0.1235,-0.1179,-0.1159,-0.1284,-0.1269,-0.1117,-0.1119,-0.1054,-0.1051,-0.1048,-0.1046,-0.1044,0,-0.0918,-0.0928,-0.098,-0.0983,-0.1,-0.1036,-0.1053,-0.1136,-0.1156,-0.1257,-0.1264,-0.1301,-0.1313,-0.1205,-0.1204,-0.1129,-0.1125,-0.1098,-0.1096,-0.1107,-0.109,-0.1097,-0.1103,-0.104,-0.1039,-0.1039,-0.1038,0,-0.0854,-0.0894,-0.0907,-0.092,-0.0938,-0.0954,-0.0995,-0.1013,-0.1106,-0.1189,-0.1213,-0.1204,-0.119,-0.1149,-0.1105,-0.1059,-0.11,-0.1069,-0.1075,-0.1073,-0.1089,-0.1077,-0.1085,-0.1029,-0.103,-0.1031,-0.1031,0,-0.0805,-0.0805,-0.0838,-0.084,-0.0859,-0.0855,-0.0892,-0.0923,-0.0971,-0.1092,-0.1098,-0.1131,-0.1187,-0.1116,-0.107,-0.1009,-0.0991,-0.0955,-0.0966,-0.0977,-0.0954,-0.0963,-0.0835,0,0,0,0,0,-0.0739,-0.0739,-0.0745,-0.075,-0.0772,-0.0784,-0.0837,-0.0886,-0.0984,-0.0967,-0.1035,-0.1012,-0.0979,-0.1007,-0.092,-0.1009,-0.0975,-0.0903,-0.0937,-0.0977,-0.0988,-0.0965,0,0,0,0,0,0,-0.0696,-0.0705,-0.0719,-0.0673,-0.0661,-0.0679,-0.0707,-0.0777,-0.0779,-0.0884,-0.0866,-0.095,-0.0919,-0.1005,-0.0901,-0.0901,-0.0898,-0.093,-0.0926,-0.0971,-0.0981,-0.0989,-0.097,0,0,0,0,0]},{"header":{"parameterUnit":"m.s-1","parameterCategory":2,"la1":30.2991,"la2":30.254,"lo1":-89.0895,"lo2":-89.0444,"dx":0.0017,"dy":0.0017,"nx":28,"ny":28,"refTime":"2022-11-29T09:00:00:Z","depth":"4","parameterNumber":3,"parameterNumberName":"V-component_of_CURRENTS"},"data":[0,0,0,0,0,0,0,0,0,0,0,0,0,0,0,0,0,0,0,0,0,0,0,0,0,0,0,0,0,0,0,0,0,0,0,0,0,0,0,0,0,0,0,0,0,0,0,0,0,0,0,0,0,0,0,0,0,0,-0.0392,-0.0393,0,-0.0422,-0.0422,-0.0422,-0.0418,-0.0418,-0.0417,-0.0417,-0.0408,-0.0408,-0.0408,0,0,0,0,0,0,0,0,0,0,0,0,0,-0.0348,-0.0348,-0.0392,-0.0393,-0.0393,-0.0422,-0.0422,-0.0423,-0.0418,-0.0418,-0.0417,-0.0417,-0.0408,-0.0408,-0.0408,0,0,0,0,0,0,0,0,0,0,0,0,0,-0.037,-0.0349,-0.0392,-0.0395,-0.0396,-0.0422,-0.0422,-0.0423,-0.0418,-0.0418,-0.0417,-0.0417,-0.0408,-0.0408,-0.0408,-0.0423,0,0,-0.0409,-0.0409,0,0,0,0,0,0,0,0,-0.0369,-0.0372,-0.0394,-0.0395,-0.0396,-0.0416,-0.0403,-0.0421,-0.0419,-0.0409,-0.0417,-0.0416,-0.0408,-0.0408,-0.0415,-0.0422,-0.0422,-0.0409,-0.0409,-0.0409,-0.0409,0,0,0,0,0,0,0,-0.0367,-0.0371,-0.0403,-0.0395,-0.0396,-0.04,-0.0403,-0.0407,-0.041,-0.041,-0.041,-0.0414,-0.0408,-0.0415,-0.0414,-0.0422,-0.0409,-0.0409,-0.0409,-0.0409,-0.0446,-0.0447,0,0,0,0,0,0,-0.0365,-0.0369,-0.0402,-0.0404,-0.0381,-0.0402,-0.0404,-0.041,-0.0411,-0.0411,-0.0415,-0.0414,-0.0415,-0.0414,-0.0414,-0.0437,-0.0409,-0.041,-0.041,-0.0446,-0.0447,-0.0447,0,0,0,0,0,0,-0.0364,-0.0368,-0.0401,-0.0388,-0.0392,-0.0403,-0.0409,-0.0411,-0.0422,-0.0416,-0.0415,-0.0426,-0.0414,-0.0414,-0.0423,-0.0436,-0.041,-0.041,-0.0445,-0.0446,-0.0447,-0.0478,0,0,0,0,0,0,-0.0363,-0.0368,-0.0375,-0.0388,-0.0393,-0.0424,-0.041,-0.0412,-0.0426,-0.0426,-0.0425,-0.0423,-0.0414,-0.0423,-0.0423,-0.0436,-0.041,-0.0444,-0.0445,-0.0447,-0.0476,-0.0481,-0.0484,0,0,0,0,0,-0.0361,-0.0373,-0.0376,-0.038,-0.0402,-0.0424,-0.0428,-0.0432,-0.0427,-0.0439,-0.0435,-0.0423,-0.0433,-0.0424,-0.0424,-0.0437,-0.0443,-0.0445,-0.0447,-0.0475,-0.048,-0.0484,0,0,0,0,0,0,-0.0359,-0.0374,-0.0377,-0.0393,-0.0411,-0.0424,-0.0437,-0.044,-0.0448,-0.0448,-0.0435,-0.0433,-0.0449,-0.044,-0.043,-0.0453,-0.0436,-0.0438,-0.0457,-0.0462,-0.0466,-0.0453,-0.041,0,0,0,0,0,-0.0363,-0.0376,-0.0392,-0.0408,-0.0416,-0.0429,-0.044,-0.0446,-0.0454,-0.0457,-0.0454,-0.0452,-0.0458,-0.0457,-0.0463,-0.0473,-0.0436,-0.0482,-0.0486,-0.0489,-0.048,-0.0467,-0.0469,-0.0454,-0.0454,-0.0454,0,0,-0.0369,-0.0378,-0.0388,-0.0409,-0.0422,-0.0439,-0.0434,-0.0458,-0.0471,-0.0455,-0.0469,-0.0471,-0.0467,-0.048,-0.0486,-0.0472,-0.0466,-0.0492,-0.0494,-0.0483,-0.0469,-0.0471,-0.0472,-0.0455,-0.0455,-0.0455,0,0,-0.0389,-0.0396,-0.0415,-0.0427,-0.0451,-0.0458,-0.0466,-0.0484,-0.049,-0.0507,-0.05,-0.0508,-0.0513,-0.0512,-0.0512,-0.0541,-0.0494,-0.0545,-0.0547,-0.0536,-0.0536,-0.0537,-0.0451,-0.0443,-0.054,-0.054,-0.054,0,-0.0401,-0.042,-0.0426,-0.0444,-0.0453,-0.0465,-0.0485,-0.0497,-0.0515,-0.0516,-0.0515,-0.0523,-0.0528,-0.0533,-0.0545,-0.055,-0.0508,-0.0529,-0.0539,-0.0539,-0.0539,-0.0451,-0.0443,-0.0541,-0.0541,-0.0541,-0.0541,0,-0.043,-0.0447,-0.046,-0.0482,-0.0491,-0.0515,-0.0524,-0.0539,-0.0544,-0.0547,-0.0558,-0.0562,-0.0558,-0.0571,-0.0566,-0.057,-0.0525,-0.0551,-0.0524,-0.0542,-0.0448,-0.0439,-0.0544,-0.0543,-0.0543,-0.0542,0,0,-0.0465,-0.0479,-0.0487,-0.0499,-0.0513,-0.053,-0.0542,-0.0558,-0.0562,-0.0576,-0.0568,-0.0593,-0.0583,-0.0581,-0.058,-0.0572,-0.0531,-0.0557,-0.0556,-0.0464,-0.0442,-0.0394,-0.0378,-0.0561,-0.056,-0.056,-0.0361,0,-0.0495,-0.0531,-0.0521,-0.0555,-0.0578,-0.0571,-0.0577,-0.0586,-0.0586,-0.0581,-0.0581,-0.0579,-0.0589,-0.0584,-0.0581,-0.0554,-0.0513,-0.0578,-0.0445,-0.0439,-0.039,-0.037,-0.0559,-0.0354,-0.0351,-0.035,-0.0348,0,-0.0535,-0.0554,-0.0589,-0.0593,-0.0599,-0.0614,-0.0618,-0.0622,-0.0608,-0.0597,-0.0585,-0.0572,-0.0552,-0.0568,-0.05,-0.0538,-0.0484,-0.0456,-0.0449,-0.0388,-0.0375,-0.0343,-0.033,-0.0332,-0.0333,-0.0334,-0.0335,0,-0.0578,-0.0601,-0.063,-0.0636,-0.0642,-0.0652,-0.065,-0.0639,-0.064,-0.0602,-0.0583,-0.0554,-0.052,-0.0489,-0.0413,-0.0459,-0.031,-0.037,-0.0256,-0.0249,-0.0337,-0.0339,-0.0306,-0.0306,-0.0306,-0.0307,-0.0308,0,-0.0616,-0.0646,-0.0658,-0.0682,-0.0715,-0.0689,-0.0713,-0.0694,-0.0664,-0.0659,-0.0595,-0.0562,-0.0505,-0.0414,-0.0375,-0.0253,-0.0269,-0.0231,-0.0205,-0.0348,-0.0354,-0.0326,-0.0331,-0.03,-0.0301,-0.0303,-0.0304,0,-0.0666,-0.0672,-0.0721,-0.0737,-0.0745,-0.0772,-0.0773,-0.0776,-0.072,-0.0704,-0.0685,-0.0553,-0.0421,-0.0317,-0.021,-0.0178,-0.0091,-0.0035,-0.0109,-0.0094,-0.004,-0.005,0.0088,0.0091,0.0093,0.0096,0.0098,0,-0.0691,-0.0722,-0.0779,-0.0811,-0.0826,-0.0857,-0.0871,-0.0829,-0.0825,-0.0709,-0.0695,-0.052,-0.0435,-0.0194,-0.0102,0.0059,0.005,0.0126,-0.0046,-0.0016,-0.0005,-0.0018,-0.003,0.0102,0.0102,0.0103,0.0104,0,-0.0739,-0.077,-0.0806,-0.0876,-0.0912,-0.0943,-0.0954,-0.0947,-0.0879,-0.0844,-0.0697,-0.0548,-0.0348,-0.0184,0.0003,0.0078,0.007,0.0153,0.0144,-0.0017,0.0002,0.0008,-0.0007,0.0113,0.0112,0.0111,0.011,0,-0.0772,-0.0812,-0.0859,-0.091,-0.0969,-0.0982,-0.0993,-0.0952,-0.0923,-0.0802,-0.0755,-0.0529,-0.0403,-0.0166,-0.0032,0.0099,0.0067,0.0037,0.0034,0.0025,-0.0078,-0.0068,0.0064,0,0,0,0,0,-0.0778,-0.0805,-0.0874,-0.0922,-0.0986,-0.1002,-0.1016,-0.1007,-0.0958,-0.0875,-0.0814,-0.0638,-0.0369,-0.0225,-0.0092,-0.0015,0.0087,0.0142,0.0048,0.0164,0.0153,0.0043,0,0,0,0,0,0,-0.0774,-0.0835,-0.0865,-0.0915,-0.0945,-0.099,-0.0993,-0.0963,-0.0912,-0.0851,-0.0699,-0.0636,-0.0363,-0.0445,-0.0095,-0.0048,-0.01,0.0269,0.0271,0.017,0.016,0.0152,0.0034,0,0,0,0,0]}]]